LUCH 5A

Last updated on Jan. 16, 2021, 6:28 a.m. UTC

1 37951U 11074B   21015.91950274 -.00000053  00000-0  00000-0 0  9993
2 37951   3.7541 109.0620 0001992 227.5531 277.0283  1.00274306 33357
UTC
Height (km)
Latitude
Longitude
Inclination
Orbital Period
UTC large
Height (km)
Speed (km/s)
/
Latitude / Longitude
Inclination (degrees)
Orbital Period (minutes)
Azimuth
Elevation
Range (km)
Doppler Factor
iOS Compass Heading
iOS Angle

Next 30 passes for location: Hong Kong

Rise time Rise Azimuth (degrees) Set time Set Azimuth (degrees) Duration Max altitude (degrees)

No matching passes for this satellites